Regional Weather Roundup
Issued by NWS Burlington, VT

Home | Current Version | Previous Version | Text Only | Print | Product List | Glossary On
Versions: 1 2 3 4 5 6 7 8 9 10 11 12 13 14 15 16 17 18 19 20 21 22 23 24 25 26 27 28 29 30 31 32 33 34 35 36 37 38 39 40 41 42 43 44 45 46 47 48 49 50
000
ASUS41 KBTV 260830
RWRBTV
VERMONT REGIONAL WEATHER ROUNDUP
NATIONAL WEATHER SERVICE BURLINGTON VT
400 AM EDT THU APR 26 2018

NOTE: "FAIR" INDICATES FEW OR NO CLOUDS BELOW 12,000 FEET WITH NO
SIGNIFICANT WEATHER AND/OR OBSTRUCTIONS TO VISIBILITY.

* THESE REPORTS ARE NOT UNDER NWS QUALITY CONTROL AND/OR DO NOT
  REPORT WEATHER SUCH AS PRECIPITATION AND FOG.

VTZ001>019-260900-
_____VERMONT_____


CITY           SKY/WX    TMP DP  RH WIND       PRES   REMARKS
BURLINGTON     LGT RAIN  52  51  97 CALM      29.57S FOG
MONTPELIER     CLOUDY    48  48 100 CALM      29.62F
MORRISVILLE    CLOUDY    46  46 100 CALM      29.59S
ST. JOHNSBURY*   N/A     49  49 100 MISG      29.58F
LYNDONVILLE*   CLOUDY    48  47  97 CALM      29.61S FOG
MIDDLEBURY*    DRIZZLE   50  49  98 CALM      29.57F
RUTLAND*       CLOUDY    50  49  96 SE6       29.58S
SPRINGFIELD    LGT RAIN  50  50 100 CALM      29.59F
HIGHGATE*      FOG       51  51 100 CALM      29.56F VSB 3/4
NEWPORT*       CLOUDY    46  46 100 CALM      29.59F FOG
BENNINGTON     LGT RAIN  53  51  93 SW6       29.58S FOG
ISLAND POND*     N/A     43 N/A N/A CALM        N/A
GALLUP MILLS*    N/A     37 N/A N/A MISG        N/A
UNION VILLAGE*   N/A     48 N/A N/A MISG        N/A
MT. MANSFIELD*   N/A     46 N/A N/A SW15        N/A

_____LAKE CHAMPLAIN_____


CITY           SKY/WX    TMP DP  RH WIND       PRES   REMARKS
BURTON ISLAND*   N/A     46  46 100 SE1         N/A
COLCHESTER RF*   N/A     45  43  93 S5          N/A
DIAMOND ISL*     N/A     48  50 100 W1          N/A

$$

NYZ007-026>031-035-052-083-087-260900-
_____NORTHERN NEW YORK_____


CITY           SKY/WX    TMP DP  RH WIND       PRES   REMARKS
PLATTSBURGH    CLOUDY    50  49  96 CALM      29.57S FOG
SARANAC LAKE   FOG       45  45 100 W3        29.57S VSB 3/4
MASSENA        CLOUDY    52  52 100 SW7       29.59F
OGDENSBURG*    CLOUDY    48  48  97 S12       29.59S FOG
POTSDAM*       CLOUDY    50  48  93 SW7       29.59S
STARK FALLS*     N/A     46 N/A N/A SW6         N/A
WATERTOWN      LGT RAIN  39  39 100 S12G21    29.65S FOG     WCI  32
FT DRUM        CLOUDY    40  37  90 SW17G25   29.62S WCI  31
ALBANY         CLOUDY    54  48  80 W9        29.61R
GLENS FALLS    LGT RAIN  50  50 100 CALM      29.58S FOG

$$
NHZ002-005-011-260900-
_____NEW HAMPSHIRE_____


CITY           SKY/WX    TMP DP  RH WIND       PRES   REMARKS
LEBANON        LGT RAIN  51  47  86 CALM      29.58F
KEENE          CLOUDY    52  51  97 CALM      29.58S
MT WASHINGTON  DRZL/FOG  39  39 100 S29G35      N/A  VSB 0   WCI  28
PLYMOUTH       CLOUDY    49  48  96 CALM      29.60F FOG
WHITEFIELD     LGT RAIN  48  47  96 CALM      29.59F FOG

$$

_____REGIONAL QUEBEC LOCATIONS_____


CITY           SKY/WX    TMP DP  RH WIND       PRES   REMARKS
MONTREAL       LGT RAIN  52  52 100 SE2       29.57S FOG
QUEBEC CITY    CLOUDY    48  46  93 E16       29.62F FOG
SHERBROOKE     LGT RAIN  46  46 100 CALM      29.58F

_____REGIONAL ONTARIO LOCATIONS_____


CITY           SKY/WX    TMP DP  RH WIND       PRES   REMARKS
OTTAWA         DRIZZLE   46  46 100 NW10      29.58S FOG

______KEY______
VSB  - VISIBILITY IN MILES
WCI  - WIND CHILL INDEX
HX   - HEAT INDEX
$$
NNNN




USA.gov is the U.S. government's official web portal to all federal, state and local government web resources and services.